Time,TemperatureF,DewpointF,PressureIn,WindDirection,WindDirectionDegrees,WindSpeedMPH,WindSpeedGustMPH,Humidity,HourlyPrecipIn,Conditions,Clouds,dailyrainin,SolarRadiationWatts/m^2,SoftwareType,DateUTC
2013-12-31 00:02:00,2.0,-4.0,-100.00,SW,236,1.0,3.0,75,0.00,,,0.01,0.000000,,2013-12-31 05:02:00,
2013-12-31 00:42:00,-1.0,-5.0,-100.00,SW,222,1.0,2.0,81,0.00,,,0.01,0.000000,,2013-12-31 05:42:00,
2013-12-31 00:53:00,-1.0,-5.0,-100.00,SW,222,1.0,2.0,81,0.00,,,0.01,0.000000,,2013-12-31 05:53:00,
2013-12-31 01:02:00,-1.0,-5.0,-100.00,SW,222,1.0,2.0,81,0.00,,,0.01,0.000000,,2013-12-31 06:02:00,
2013-12-31 01:43:00,-3.0,-8.0,-100.00,NE,46,1.0,4.0,79,0.00,,,0.01,0.000000,,2013-12-31 06:43:00,
2013-12-31 01:52:00,-3.0,-8.0,-100.00,NE,46,1.0,4.0,79,0.00,,,0.01,0.000000,,2013-12-31 06:52:00,
2013-12-31 02:02:00,-3.0,-8.0,-100.00,NE,46,1.0,4.0,79,0.00,,,0.01,0.000000,,2013-12-31 07:02:00,
2013-12-31 02:42:00,-5.0,-10.0,-100.00,NW,320,1.0,2.0,79,0.00,,,0.01,0.000000,,2013-12-31 07:42:00,
2013-12-31 02:52:00,-5.0,-10.0,-100.00,NW,320,1.0,2.0,79,0.00,,,0.01,0.000000,,2013-12-31 07:52:00,
2013-12-31 03:02:00,-5.0,-10.0,-100.00,NW,320,1.0,2.0,79,0.00,,,0.01,0.000000,,2013-12-31 08:02:00,
2013-12-31 03:42:00,-5.0,-10.0,-100.00,NE,36,1.0,3.0,78,0.00,,,0.01,0.000000,,2013-12-31 08:42:00,
2013-12-31 03:52:00,-5.0,-10.0,-100.00,NE,36,1.0,3.0,78,0.00,,,0.01,0.000000,,2013-12-31 08:52:00,
2013-12-31 04:02:00,-5.0,-10.0,-100.00,NE,36,1.0,3.0,78,0.00,,,0.01,0.000000,,2013-12-31 09:02:00,
2013-12-31 04:43:00,-5.0,-10.0,-100.00,South,181,1.0,2.0,77,0.00,,,0.01,0.000000,,2013-12-31 09:43:00,
2013-12-31 04:53:00,-5.0,-10.0,-100.00,South,181,1.0,2.0,77,0.00,,,0.01,0.000000,,2013-12-31 09:53:00,
2013-12-31 05:02:00,-5.0,-10.0,-100.00,South,181,1.0,2.0,77,0.00,,,0.01,0.000000,,2013-12-31 10:02:00,
2013-12-31 05:43:00,-6.0,-11.0,-100.00,NW,309,1.0,4.0,78,0.00,,,0.01,0.000000,,2013-12-31 10:43:00,
2013-12-31 05:53:00,-6.0,-11.0,-100.00,NW,309,1.0,4.0,78,0.00,,,0.01,0.000000,,2013-12-31 10:53:00,
2013-12-31 06:02:00,-6.0,-11.0,-100.00,NW,309,1.0,4.0,78,0.00,,,0.01,0.000000,,2013-12-31 11:02:00,
2013-12-31 06:43:00,-7.0,-13.0,-100.00,North,-999,0.0,4.0,76,0.00,,,0.01,0.000000,,2013-12-31 11:43:00,
2013-12-31 06:53:00,-7.0,-13.0,-100.00,North,-999,0.0,4.0,76,0.00,,,0.01,0.000000,,2013-12-31 11:53:00,
2013-12-31 07:02:00,-7.0,-13.0,-100.00,North,-999,0.0,4.0,76,0.00,,,0.01,0.000000,,2013-12-31 12:02:00,
2013-12-31 07:42:00,-8.0,-14.0,-100.00,North,-999,0.0,2.0,75,0.00,,,0.01,0.000000,,2013-12-31 12:42:00,
2013-12-31 07:52:00,-8.0,-14.0,-100.00,North,-999,0.0,2.0,75,0.00,,,0.01,0.000000,,2013-12-31 12:52:00,
2013-12-31 08:02:00,-8.0,-14.0,-100.00,North,-999,0.0,2.0,75,0.00,,,0.01,0.000000,,2013-12-31 13:02:00,
2013-12-31 08:42:00,-7.0,-13.0,-100.00,North,-999,0.0,2.0,76,0.00,,,0.01,2.000000,,2013-12-31 13:42:00,
2013-12-31 08:52:00,-7.0,-13.0,-100.00,North,-999,0.0,2.0,76,0.00,,,0.01,2.000000,,2013-12-31 13:52:00,
2013-12-31 09:02:00,-7.0,-13.0,-100.00,North,-999,0.0,2.0,76,0.00,,,0.01,2.000000,,2013-12-31 14:02:00,
2013-12-31 09:43:00,-3.0,-8.0,-100.00,ENE,73,1.0,2.0,77,0.00,,,0.01,8.000000,,2013-12-31 14:43:00,
2013-12-31 09:53:00,-3.0,-8.0,-100.00,ENE,73,1.0,2.0,77,0.00,,,0.01,8.000000,,2013-12-31 14:53:00,
2013-12-31 10:02:00,-3.0,-8.0,-100.00,ENE,73,1.0,2.0,77,0.00,,,0.01,8.000000,,2013-12-31 15:02:00,
2013-12-31 10:44:00,5.0,-3.0,-100.00,ENE,71,2.0,3.0,68,0.00,,,0.01,30.000000,,2013-12-31 15:44:00,
2013-12-31 10:53:00,5.0,-3.0,-100.00,ENE,71,2.0,3.0,68,0.00,,,0.01,30.000000,,2013-12-31 15:53:00,
2013-12-31 11:03:00,5.0,-3.0,-100.00,ENE,71,2.0,3.0,68,0.00,,,0.01,30.000000,,2013-12-31 16:03:00,
2013-12-31 12:42:00,11.0,-4.0,-100.00,NE,50,2.0,5.0,51,0.00,,,0.01,43.000000,,2013-12-31 17:42:00,
2013-12-31 12:53:00,11.0,-4.0,-100.00,NE,50,2.0,5.0,51,0.00,,,0.01,43.000000,,2013-12-31 17:53:00,
2013-12-31 13:02:00,11.0,-4.0,-100.00,NE,50,2.0,5.0,51,0.00,,,0.01,43.000000,,2013-12-31 18:02:00,
2013-12-31 13:42:00,14.0,-2.0,-100.00,NNW,344,2.0,4.0,48,0.00,,,0.00,25.000000,,2013-12-31 18:42:00,
2013-12-31 13:53:00,14.0,-2.0,-100.00,NNW,344,2.0,4.0,48,0.00,,,0.00,25.000000,,2013-12-31 18:53:00,
2013-12-31 14:01:00,14.0,-2.0,-100.00,NNW,344,2.0,4.0,48,0.00,,,0.00,25.000000,,2013-12-31 19:01:00,
2013-12-31 14:53:00,18.0,-1.0,-100.00,WSW,256,2.0,6.0,43,0.00,,,0.00,43.000000,,2013-12-31 19:53:00,
2013-12-31 15:02:00,18.0,-1.0,-100.00,WSW,256,2.0,6.0,43,0.00,,,0.00,43.000000,,2013-12-31 20:02:00,
2013-12-31 15:42:00,17.0,0.0,-100.00,North,349,2.0,6.0,47,0.00,,,0.00,54.000000,,2013-12-31 20:42:00,
2013-12-31 15:53:00,17.0,0.0,-100.00,North,349,2.0,6.0,47,0.00,,,0.00,54.000000,,2013-12-31 20:53:00,
2013-12-31 16:02:00,17.0,0.0,-100.00,North,349,2.0,6.0,47,0.00,,,0.00,54.000000,,2013-12-31 21:02:00,
2013-12-31 16:43:00,8.0,0.0,-100.00,North,-999,0.0,3.0,70,0.00,,,0.00,13.000000,,2013-12-31 21:43:00,
2013-12-31 16:53:00,8.0,0.0,-100.00,North,-999,0.0,3.0,70,0.00,,,0.00,13.000000,,2013-12-31 21:53:00,
2013-12-31 17:03:00,8.0,0.0,-100.00,North,-999,0.0,3.0,70,0.00,,,0.00,13.000000,,2013-12-31 22:03:00,
2013-12-31 17:43:00,3.0,-1.0,-100.00,North,-999,0.0,2.0,83,0.00,,,0.00,0.000000,,2013-12-31 22:43:00,
2013-12-31 17:53:00,3.0,-1.0,-100.00,North,-999,0.0,2.0,83,0.00,,,0.00,0.000000,,2013-12-31 22:53:00,
2013-12-31 18:02:00,3.0,-1.0,-100.00,North,-999,0.0,2.0,83,0.00,,,0.00,0.000000,,2013-12-31 23:02:00,
2013-12-31 18:43:00,3.0,-1.0,-100.00,NE,46,2.0,3.0,81,0.00,,,0.00,0.000000,,2013-12-31 23:43:00,
2013-12-31 18:53:00,3.0,-1.0,-100.00,NE,46,2.0,3.0,81,0.00,,,0.00,0.000000,,2013-12-31 23:53:00,
2013-12-31 19:02:00,3.0,-1.0,-100.00,NE,46,2.0,3.0,81,0.00,,,0.00,0.000000,,2014-01-01 00:02:00,
2013-12-31 19:42:00,3.0,-1.0,-100.00,NE,51,1.0,3.0,82,0.00,,,0.00,0.000000,,2014-01-01 00:42:00,
2013-12-31 19:52:00,3.0,-1.0,-100.00,NE,51,1.0,3.0,82,0.00,,,0.00,0.000000,,2014-01-01 00:52:00,
2013-12-31 20:02:00,3.0,-1.0,-100.00,NE,51,1.0,3.0,82,0.00,,,0.00,0.000000,,2014-01-01 01:02:00,
2013-12-31 20:42:00,1.0,-3.0,-100.00,SE,129,1.0,2.0,82,0.00,,,0.00,0.000000,,2014-01-01 01:42:00,
2013-12-31 20:52:00,1.0,-3.0,-100.00,SE,129,1.0,2.0,82,0.00,,,0.00,0.000000,,2014-01-01 01:52:00,
2013-12-31 21:02:00,1.0,-3.0,-100.00,SE,129,1.0,2.0,82,0.00,,,0.00,0.000000,,2014-01-01 02:02:00,
2013-12-31 21:42:00,0.0,-4.0,-100.00,WSW,240,1.0,2.0,81,0.00,,,0.00,0.000000,,2014-01-01 02:42:00,
2013-12-31 21:52:00,0.0,-4.0,-100.00,WSW,240,1.0,2.0,81,0.00,,,0.00,0.000000,,2014-01-01 02:52:00,
2013-12-31 22:02:00,0.0,-4.0,-100.00,WSW,240,1.0,2.0,81,0.00,,,0.00,0.000000,,2014-01-01 03:02:00,
2013-12-31 22:44:00,-2.0,-7.0,-100.00,NNW,341,1.0,5.0,80,0.00,,,0.00,0.000000,,2014-01-01 03:44:00,
2013-12-31 22:53:00,-2.0,-7.0,-100.00,NNW,341,1.0,5.0,80,0.00,,,0.00,0.000000,,2014-01-01 03:53:00,
2013-12-31 23:03:00,-2.0,-7.0,-100.00,NNW,341,1.0,5.0,80,0.00,,,0.00,0.000000,,2014-01-01 04:03:00,
2013-12-31 23:43:00,-2.0,-6.0,-100.00,NE,53,1.0,3.0,81,0.00,,,0.00,0.000000,,2014-01-01 04:43:00,
2013-12-31 23:53:00,-2.0,-6.0,-100.00,NE,53,1.0,3.0,81,0.00,,,0.00,0.000000,,2014-01-01 04:53:00,